GAOFEN 14 (47231 NORAD) Tracking and Keplerian Element Data

This shows tracking and keplerian element data for the satellite.

Feedback or suggestion? Click here.




ElementValue
Catalog47231
NameGAOFEN 14
Epoch Orbit1295
Epoch Day60.16140164
Epoch Year2021
RAAN137.4486
Inclination97.4301
Eccentricity0.0010394
Argument of Perigee331.6795
Mean Anonmoly111.7169
Mean Motion15.25701506
Decay Rate1.415E-05
L11 47231U 20092A 21060.16140164 .00001415 00000-0 58344-4 0 9991
L22 47231 97.4301 137.4486 0010394 331.6795 111.7169 15.25701506 12952

Live tracking and technical data element details for GAOFEN 14 (NORAD 47231). GAOFEN 14 can be tracked NOW for your location showing map with azimuth and elevation plus other details from your city location.

Track the satellite on the map from your city or location and see movement details for azimuth, elevation, latitude, longitude, range, height, and movement on the map or in text.







IsCatalogInMostPopularTable: catalog: 47231, numindb: 38
Update: records affected: 1



GetName: 47231 GAOFEN 14

Hit Count: updated at: Mon, 01 Mar 2021 21:41:35 GMT